COSMOS 1275 DEB, 42198

Orbit data source: Space-Track

COSMOS 1275 DEB, 42198 is space debris in LEO originally from a launch on Thu, 04 Jun 1981 UTC launched from the Plesetsk Missile And Space Complex (PKMTR). Debris objects in space refer to the collection of defunct objects orbiting the Earth. Examples of debris include non-operational satellites, rocket bodies, and fragments generated from explosions, collisions, or faulty payload assembly.

Loading next visibility...
Identifier
42198, 1981-053TN
Orbit
LEO
Country
Flag of CISCIS
Related business
Manufacturer
Unknown
Mission
Spacecraft
Bus & Motor
Unknown
Mass
Unknown
Launch date (UTC)
1981-06-04 (44 years ago)
Launch vehicle
Unknown
Launch site
Plesetsk Missile And Space Complex (PKMTR)
Object type
Payload
Rocket body
Debris
Shape & HBR
Unknown
Radar Cross Section
Small (<0.1 m²)

Expand to show TLE details & history
Last TLE update: 1 week ago

TLE from 1 week ago
0 COSMOS 1275 DEB
1 42198U 81053TN  25250.96414315  .00001148  00000-0  90688-3 0  9996
2 42198  82.8043 136.0081 0040272  84.9514 275.6245 13.90364256597478
Epoch: 2025-09-07T23:08Z
TLE epoch observation values (Epoch: 2025-09-07T23:08:21.968Z)
Latitude
-0.00004°
Longitude
161.64049°
Altitude
927.506 km
Speed
7.389 km/s
True Right ascension
09h 04m 01s
True Declination
0° 00' 00"
Sunlit
Object was in daylight at epoch
Visualization orbit readout
Latitude
Unknown
Longitude
Unknown
Altitude
Unknown
Speed
Unknown
Apparent Right ascension
Unknown
Apparent Declination
Unknown
Sunlit
N/A
Visualization observer readout
Local Sidereal Time
17:37:18
Azimuth
Unknown
Elevation
Unknown
Doppler factor
Unknown
Orbital elements
Apogee altitude
953.897 km
Perigee altitude
895.078 km
Semi-major axis
7,302.624 km
Eccentricity
0.00403
Inclination
82.8043°
RAAN
136.0081°
Arg. of periapsis
84.9514°
True anomaly
275.16502°
Mean anomaly
275.6245°
Eccentric anomaly
275.39478°
Mean motion
3.47796 °/min
Orbital period
103.51 mins
BSTAR
0.00090688
Loading maneuver chart data...
Computing Atmospheric mass density...
Loading historical data...
Loading historical data...
Loading historical data...
Loading historical data...
Loading historical data...
Loading historical data...
Loading historical data...

Documentation

Showing up to 5 results
|